Location: Lac de la Montagne noire
(46.1952°N, 74.2701°W)
Time: 10:55:24
(UTC-04:00)

ISS - Pass Details

Date: 01 April 2019
Orbit: 408 x 410 km, 51.6° (Epoch: 26 April)

Event Time Altitude Azimuth Distance (km) Brightness Sun altitude
Rises 21:57:33 0° 297° (WNW) 2,338 1.3 -24.9°
Reaches altitude 10° 21:59:39 10° 296° (WNW) 1,474 0.0 -25.2°
Enters shadow 22:01:23 28° 292° (WNW) 794 -1.8 -25.4°
